TimeCDT,TemperatureF,Dew PointF,Humidity,Sea Level PressureIn,VisibilityMPH,Wind Direction,Wind SpeedMPH,Gust SpeedMPH,PrecipitationIn,Events,Conditions,WindDirDegrees,DateUTC
12:15 AM,43.2,41.2,93,29.93,10.0,ESE,4.6,-,N/A,,Clear,120,2012-10-21 05:15:00
12:35 AM,42.8,40.8,93,29.94,10.0,ESE,4.6,-,N/A,,Clear,110,2012-10-21 05:35:00
12:55 AM,41.5,39.7,93,29.94,10.0,East,4.6,-,N/A,,Clear,100,2012-10-21 05:55:00
1:15 AM,41.2,39.6,94,29.94,10.0,East,4.6,-,N/A,,Clear,90,2012-10-21 06:15:00
1:35 AM,41.2,40.1,96,29.94,10.0,ESE,3.5,-,N/A,,Clear,120,2012-10-21 06:35:00
1:55 AM,40.3,39.4,97,29.94,7.0,Calm,Calm,-,N/A,,Clear,0,2012-10-21 06:55:00
2:15 AM,43.5,42.8,97,29.94,10.0,ESE,5.8,-,N/A,,Clear,120,2012-10-21 07:15:00
2:35 AM,42.8,41.7,96,29.93,7.0,ESE,5.8,-,N/A,,Clear,110,2012-10-21 07:35:00
2:55 AM,40.3,39.6,97,29.93,5.0,ESE,3.5,-,N/A,,Clear,110,2012-10-21 07:55:00
3:15 AM,41.4,41.0,99,29.93,5.0,East,3.5,-,N/A,,Clear,100,2012-10-21 08:15:00
3:35 AM,40.8,40.1,97,29.93,5.0,ENE,6.9,-,N/A,,Clear,70,2012-10-21 08:35:00
3:55 AM,41.2,40.8,99,29.93,5.0,East,6.9,-,N/A,,Clear,90,2012-10-21 08:55:00
4:15 AM,41.4,41.0,99,29.93,5.0,East,6.9,-,N/A,,Clear,100,2012-10-21 09:15:00
4:35 AM,41.7,41.4,99,29.93,5.0,ESE,3.5,-,N/A,,Clear,120,2012-10-21 09:35:00
4:55 AM,43.0,42.8,99,29.93,7.0,ESE,3.5,-,N/A,,Clear,110,2012-10-21 09:55:00
5:15 AM,43.9,43.3,98,29.93,7.0,ESE,5.8,-,N/A,,Clear,120,2012-10-21 10:15:00
5:35 AM,43.7,43.0,97,29.93,5.0,ESE,5.8,-,N/A,,Clear,120,2012-10-21 10:35:00
5:55 AM,44.6,42.8,93,29.93,5.0,ESE,5.8,-,N/A,,Clear,110,2012-10-21 10:55:00
6:15 AM,43.9,43.0,97,29.93,7.0,SE,6.9,-,N/A,,Clear,130,2012-10-21 11:15:00
6:35 AM,44.4,43.3,96,29.93,7.0,SE,6.9,-,N/A,,Clear,130,2012-10-21 11:35:00
6:55 AM,44.6,44.6,100,29.93,7.0,ESE,6.9,-,N/A,,Clear,120,2012-10-21 11:55:00
7:15 AM,44.6,43.3,95,29.93,7.0,SE,6.9,-,N/A,,Clear,130,2012-10-21 12:15:00
7:35 AM,44.8,43.7,96,29.93,5.0,ESE,8.1,-,N/A,,Clear,120,2012-10-21 12:35:00
7:55 AM,45.5,44.4,96,29.93,5.0,SE,8.1,-,N/A,,Clear,130,2012-10-21 12:55:00
8:15 AM,46.8,45.1,94,29.94,7.0,SE,8.1,-,N/A,,Clear,130,2012-10-21 13:15:00
8:35 AM,48.2,45.9,92,29.95,7.0,SE,9.2,-,N/A,,Clear,130,2012-10-21 13:35:00
8:55 AM,49.5,46.9,91,29.95,10.0,SE,8.1,-,N/A,,Clear,140,2012-10-21 13:55:00
9:15 AM,50.9,47.5,88,29.96,10.0,SE,8.1,-,N/A,,Clear,140,2012-10-21 14:15:00
9:35 AM,52.2,48.4,87,29.96,10.0,SE,9.2,-,N/A,,Clear,140,2012-10-21 14:35:00
9:55 AM,53.8,48.9,84,29.97,10.0,SE,9.2,-,N/A,,Clear,140,2012-10-21 14:55:00
10:15 AM,55.4,49.3,80,29.96,10.0,SSE,9.2,-,N/A,,Clear,150,2012-10-21 15:15:00
10:35 AM,56.7,49.8,78,29.96,10.0,SE,9.2,-,N/A,,Clear,140,2012-10-21 15:35:00
10:55 AM,58.1,50.0,74,29.97,10.0,SE,9.2,-,N/A,,Clear,140,2012-10-21 15:55:00
11:15 AM,60.4,50.4,69,29.96,10.0,SSE,8.1,-,N/A,,Clear,150,2012-10-21 16:15:00
11:35 AM,61.9,50.7,67,29.95,10.0,SE,10.4,-,N/A,,Clear,140,2012-10-21 16:35:00
11:55 AM,63.5,50.9,63,29.96,10.0,SE,10.4,-,N/A,,Clear,140,2012-10-21 16:55:00
12:15 PM,65.1,50.9,60,29.95,10.0,SE,9.2,-,N/A,,Clear,140,2012-10-21 17:15:00
12:35 PM,66.2,51.1,58,29.95,10.0,SE,11.5,-,N/A,,Clear,140,2012-10-21 17:35:00
12:55 PM,66.7,51.3,57,29.94,10.0,SSE,11.5,-,N/A,,Clear,150,2012-10-21 17:55:00
1:15 PM,68.2,52.0,56,29.94,10.0,SSE,10.4,-,N/A,,Clear,150,2012-10-21 18:15:00
1:35 PM,68.9,52.0,55,29.93,10.0,SE,11.5,-,N/A,,Clear,140,2012-10-21 18:35:00
1:55 PM,70.0,52.0,53,29.92,10.0,SSE,12.7,16.1,N/A,,Clear,150,2012-10-21 18:55:00
2:15 PM,71.1,52.3,52,29.92,10.0,SSE,10.4,-,N/A,,Clear,150,2012-10-21 19:15:00
2:35 PM,72.5,53.4,51,29.91,10.0,SE,10.4,-,N/A,,Clear,140,2012-10-21 19:35:00
2:55 PM,73.4,53.4,49,29.90,10.0,SE,10.4,-,N/A,,Clear,130,2012-10-21 19:55:00
3:15 PM,73.8,53.6,49,29.90,10.0,SE,11.5,-,N/A,,Clear,130,2012-10-21 20:15:00
3:35 PM,73.9,53.8,49,29.90,10.0,SE,10.4,-,N/A,,Clear,130,2012-10-21 20:35:00
3:55 PM,75.2,55.4,50,29.90,10.0,SE,12.7,-,N/A,,Clear,130,2012-10-21 20:55:00
4:15 PM,74.5,54.9,50,29.90,10.0,SE,12.7,-,N/A,,Clear,130,2012-10-21 21:15:00
4:35 PM,74.3,55.4,52,29.90,10.0,SE,12.7,-,N/A,,Clear,130,2012-10-21 21:35:00
4:55 PM,74.1,55.6,52,29.90,10.0,SE,12.7,-,N/A,,Clear,130,2012-10-21 21:55:00
5:15 PM,73.4,55.9,54,29.89,10.0,SE,11.5,17.3,N/A,,Clear,130,2012-10-21 22:15:00
5:35 PM,72.5,56.3,57,29.90,10.0,SE,11.5,-,N/A,,Clear,130,2012-10-21 22:35:00
5:55 PM,71.1,56.5,60,29.90,10.0,SE,9.2,-,N/A,,Clear,130,2012-10-21 22:55:00
6:15 PM,68.9,56.5,65,29.90,10.0,ESE,9.2,-,N/A,,Clear,120,2012-10-21 23:15:00
6:35 PM,66.0,55.8,69,29.90,10.0,ESE,8.1,-,N/A,,Clear,110,2012-10-21 23:35:00
6:55 PM,65.1,55.4,71,29.90,10.0,ESE,8.1,-,N/A,,Clear,110,2012-10-21 23:55:00
7:15 PM,64.4,55.4,73,29.91,10.0,ESE,8.1,-,N/A,,Clear,120,2012-10-22 00:15:00
7:35 PM,65.1,55.6,71,29.92,10.0,SE,9.2,-,N/A,,Clear,130,2012-10-22 00:35:00
7:55 PM,64.4,55.4,73,29.92,10.0,SE,10.4,-,N/A,,Clear,130,2012-10-22 00:55:00
8:15 PM,65.3,55.8,71,29.92,10.0,SE,11.5,-,N/A,,Clear,130,2012-10-22 01:15:00
8:35 PM,64.6,55.8,73,29.92,10.0,SE,11.5,-,N/A,,Clear,130,2012-10-22 01:35:00
8:55 PM,63.9,55.8,75,29.93,10.0,SE,10.4,-,N/A,,Clear,140,2012-10-22 01:55:00
9:15 PM,63.5,55.8,76,29.93,10.0,SE,9.2,-,N/A,,Clear,140,2012-10-22 02:15:00
9:35 PM,63.0,55.8,77,29.93,10.0,SE,8.1,-,N/A,,Clear,140,2012-10-22 02:35:00
9:55 PM,62.2,55.8,79,29.93,10.0,SE,9.2,-,N/A,,Clear,140,2012-10-22 02:55:00
10:15 PM,61.7,55.6,80,29.93,10.0,SSE,10.4,-,N/A,,Clear,150,2012-10-22 03:15:00
10:35 PM,61.7,55.6,80,29.94,10.0,SSE,9.2,-,N/A,,Clear,150,2012-10-22 03:35:00
10:55 PM,61.3,55.6,81,29.94,10.0,SSE,9.2,-,N/A,,Clear,150,2012-10-22 03:55:00
11:15 PM,60.4,55.4,83,29.94,10.0,SSE,8.1,-,N/A,,Clear,150,2012-10-22 04:15:00
11:35 PM,59.5,55.6,87,29.94,10.0,SE,6.9,-,N/A,,Clear,140,2012-10-22 04:35:00
11:55 PM,59.4,56.3,90,29.94,10.0,SSE,6.9,-,N/A,,Mostly Cloudy,150,2012-10-22 04:55:00